Mmabatho, South Africa

12:38 AM SAST on March 30, 2017 (GMT +0200)
Mafikeng International

Weather History for FAMM - October, 2013

Change the Weather History Date:

Wednesday, October 9, 2013

  Actual Average Record
Temperature  
Mean Temperature 74 °F -  
Max Temperature 92 °F - - ()
Min Temperature 57 °F - - ()
Cooling Degree Days 10    
Growing Degree Days 24 (Base 50)    
Moisture  
Dew Point 40 °F    
Average Humidity 34    
Maximum Humidity 72    
Minimum Humidity 6    
Precipitation  
Precipitation 0.00 in - - ()
Sea Level Pressure  
Sea Level Pressure 30.13 in    
Wind  
Wind Speed 7 mph ()    
Max Wind Speed 15 mph    
Max Gust Speed -    
Visibility 11.7 miles    
Events      
T = Trace of Precipitation, MM = Missing Value Source: Averaged Metar Reports

Daily Weather History Graph

Daily Weather History Graph

Search for Another Location

Airport or City:

Trip Planner

Search our weather history database for the weather conditions in past years. The results will help you decide how hot, cold, wet, or windy it might be!

Date:

Astronomy

Oct. 09, 2013 Rise Set
Actual Time 5:49 AM SAST 6:21 PM SAST
Civil Twilight 5:26 AM SAST 6:44 PM SAST
Nautical Twilight 4:58 AM SAST 7:11 PM SAST
Astronomical Twilight 4:31 AM SAST 7:39 PM SAST
Moon 9:06 AM SAST (10/9) 10:55 PM SAST (10/9)
Length of Visible Light 13h 18m
Length of Day
12h 32m
Waxing Crescent, 22% of the Moon is Illuminated
Oct 9
Waxing Crescent
Oct 12
First Quarter
Oct 19
Full
Oct 27
Last Quarter
Nov 3
New

Hourly Weather History & Observations

Time (SAST) Temp. Dew Point Humidity Pressure Visibility Wind Dir Wind Speed Gust Speed Precip Events Conditions
12:00 AM 62.6 °F 37.4 °F 39% 30.15 in - NE 4.6 mph - N/A   Unknown
1:00 AM 62.6 °F 39.2 °F 42% 30.12 in - NE 6.9 mph - N/A   Unknown
2:00 AM 67 °F 47 °F 38%  in - North 10.4 mph - -  
2:00 AM 66.2 °F 46.4 °F 49% 30.15 in - North 9.2 mph - N/A   Unknown
3:00 AM 62.6 °F 46.4 °F 55% 30.15 in - East 2.3 mph - N/A   Unknown
4:00 AM 60.8 °F 50.0 °F 68% 30.12 in - NNE 10.4 mph - N/A   Unknown
5:00 AM 59 °F 50 °F 63%  in 19 mi NNE 9.2 mph - -  
5:00 AM 59.0 °F 48.2 °F 67% 30.15 in - NNE 9.2 mph - N/A   Clear
6:00 AM 57.2 °F 48.2 °F 72% 30.15 in - NE 8.1 mph - N/A   Clear
6:36 AM 60.8 °F 50.0 °F 68% 30.15 in - NNE 11.5 mph - N/A   Clear
7:00 AM 62.6 °F 51.8 °F 68% 30.18 in - NNE 12.7 mph - N/A   Clear
7:43 AM 66.2 °F 51.8 °F 60% 30.18 in - NNE 13.8 mph - N/A   Clear
8:00 AM 68 °F 52 °F 47%  in 19 mi NNE 13.8 mph - -  
8:00 AM 68.0 °F 51.8 °F 56% 30.18 in - NNE 13.8 mph - N/A   Clear
9:00 AM 71.6 °F 51.8 °F 50% 30.21 in - North 9.2 mph - N/A   Clear
10:00 AM 77.0 °F 48.2 °F 36% 30.18 in - North 6.9 mph - N/A   Clear
11:00 AM 80 °F 49 °F 23%  in 19 mi NW 8.1 mph - -  
11:00 AM 78.8 °F 48.2 °F 34% 30.18 in - NW 8.1 mph - N/A   Clear
12:00 PM 84.2 °F 41.0 °F 22% 30.15 in - WNW 6.9 mph - N/A   Clear
1:00 PM 87.8 °F 35.6 °F 16% 30.15 in 6.2 mi SSW 4.6 mph - N/A   Partly Cloudy
2:00 PM 88 °F 34 °F 7%  in 19 mi WSW 10.4 mph - -   Scattered Clouds
2:00 PM 87.8 °F 32.0 °F 14% 30.12 in 6.2 mi WSW 9.2 mph - N/A   Partly Cloudy
3:00 PM 89.6 °F 30.2 °F 12% 30.06 in 6.2 mi SW 9.2 mph - N/A   Partly Cloudy
4:00 PM 89.6 °F 28.4 °F 11% 30.06 in 6.2 mi WSW 15.0 mph - N/A   Partly Cloudy
5:00 PM 89 °F 31 °F 6%  in 19 mi SSW 11.5 mph - -   Scattered Clouds
5:00 PM 87.8 °F 32.0 °F 14% 30.06 in 6.2 mi SSW 10.4 mph - N/A   Partly Cloudy
6:00 PM 86.0 °F 24.8 °F 11% 30.06 in 6.2 mi SSW 9.2 mph - N/A   Partly Cloudy
7:00 PM 80.6 °F 28.4 °F 15% 30.06 in 6.2 mi SSW 4.6 mph - N/A   Partly Cloudy
8:00 PM 81 °F 26 °F 6%  in 19 mi SSW 3.5 mph - -   Scattered Clouds
8:00 PM 80.6 °F 26.6 °F 14% 30.09 in 6.2 mi SSW 2.3 mph - N/A   Partly Cloudy
9:00 PM 78.8 °F 28.4 °F 16% 30.09 in - SW 1.2 mph - N/A   Unknown
10:00 PM 69.8 °F 26.6 °F 20% 30.09 in - ENE 4.6 mph - N/A   Unknown
11:00 PM 66 °F 27 °F 13%  in - NNE 6.9 mph - -  
11:00 PM 64.4 °F 28.4 °F 26% 30.12 in - NNE 5.8 mph - N/A   Unknown